Alpena, MI

6:04 AM EST on December 17, 2017 (GMT -0500)
Alpena County Regional

Weather History for KAPN - June, 2014

Change the Weather History Date:

Friday, June 20, 2014

  Actual Average Record
Temperature  
Mean Temperature 51 °F 64 °F  
Max Temperature 61 °F 76 °F 98 °F (1933)
Min Temperature 40 °F 51 °F 31 °F (1961)
Degree Days  
Heating Degree Days 14 4  
Month to date heating degree days 98 116  
Since 1 June heating degree days 98 116  
Since 1 July heating degree days 9151 8073  
Cooling Degree Days 0 2  
Month to date cooling degree days 25 30  
Year to date cooling degree days 30 43  
Since 1 June cooling degree days 25 30  
Moisture  
Dew Point 44 °F    
Average Humidity 76    
Maximum Humidity 96    
Minimum Humidity 55    
Precipitation  
Precipitation T in 0.09 in 1.12 in (1979)
Month to date precipitation 0.99 1.70  
Year to date precipitation 12.49 11.60  
Sea Level Pressure  
Sea Level Pressure 30.12 in    
Wind  
Wind Speed 4 mph (East)    
Max Wind Speed 14 mph    
Max Gust Speed 18 mph    
Visibility 10 miles    
Events Rain    
T = Trace of Precipitation, MM = Missing Value Source: NWS Daily Summary

Daily Weather History Graph

Daily Weather History Graph

Search for Another Location

Airport or City:

Trip Planner

Search our weather history database for the weather conditions in past years. The results will help you decide how hot, cold, wet, or windy it might be!

Date:

Astronomy

Jun. 20, 2014 Rise Set
Actual Time 5:46 AM EDT 9:24 PM EDT
Civil Twilight 5:09 AM EDT 10:02 PM EDT
Nautical Twilight 4:19 AM EDT 10:52 PM EDT
Astronomical Twilight 3:12 AM EDT 11:58 PM EDT
Moon 1:41 AM EDT (6/20) 2:44 PM EDT (6/20)
Length of Visible Light 16h 52m
Length of Day
15h 37m
Last Quarter, 40% of the Moon is Illuminated
Jun 20
Last Quarter
Jun 27
New
Jul 5
First Quarter
Jul 12
Full
Jul 18
Last Quarter

Hourly Weather History & Observations

Time (EDT) Temp. Dew Point Humidity Pressure Visibility Wind Dir Wind Speed Gust Speed Precip Events Conditions
12:54 AM 45.0 °F 39.9 °F 82% 30.19 in 10.0 mi Calm Calm - N/A   Clear
1:54 AM 45.0 °F 42.1 °F 90% 30.18 in 10.0 mi Calm Calm - N/A   Clear
2:54 AM 42.1 °F 39.9 °F 92% 30.17 in 10.0 mi Calm Calm - N/A   Clear
3:54 AM 43.0 °F 39.9 °F 89% 30.17 in 10.0 mi Calm Calm - N/A   Clear
4:54 AM 43.0 °F 39.9 °F 89% 30.16 in 10.0 mi Calm Calm - N/A   Clear
5:54 AM 43.0 °F 41.0 °F 93% 30.17 in 10.0 mi Calm Calm - N/A   Clear
6:54 AM 46.0 °F 43.0 °F 89% 30.16 in 10.0 mi Calm Calm - N/A   Clear
7:54 AM 48.0 °F 46.0 °F 93% 30.16 in 10.0 mi Calm Calm - N/A   Clear
8:54 AM 57.0 °F 46.0 °F 67% 30.16 in 10.0 mi SSE 3.5 mph - N/A   Clear
9:54 AM 59.0 °F 44.1 °F 58% 30.14 in 10.0 mi East 12.7 mph - N/A   Clear
10:54 AM 60.1 °F 44.1 °F 55% 30.14 in 10.0 mi ESE 9.2 mph - N/A   Clear
11:54 AM 59.0 °F 44.1 °F 58% 30.14 in 10.0 mi SE 9.2 mph - N/A   Clear
12:54 PM 60.1 °F 46.0 °F 60% 30.15 in 10.0 mi ESE 6.9 mph - N/A   Mostly Cloudy
1:54 PM 59.0 °F 48.0 °F 67% 30.13 in 10.0 mi East 6.9 mph - 0.00 in Rain Light Rain
2:54 PM 57.9 °F 50.0 °F 75% 30.11 in 10.0 mi ESE 6.9 mph - 0.00 in   Overcast
3:54 PM 57.0 °F 48.0 °F 72% 30.08 in 10.0 mi East 9.2 mph - 0.00 in   Overcast
4:54 PM 57.9 °F 46.0 °F 65% 30.08 in 10.0 mi SE 4.6 mph - N/A   Overcast
5:54 PM 60.1 °F 46.0 °F 60% 30.10 in 10.0 mi NNE 6.9 mph - 0.00 in   Overcast
6:54 PM 59.0 °F 44.1 °F 58% 30.07 in 10.0 mi NE 5.8 mph - N/A   Overcast
7:54 PM 57.0 °F 45.0 °F 64% 30.05 in 10.0 mi ENE 3.5 mph - 0.00 in   Overcast
8:54 PM 55.9 °F 39.0 °F 53% 30.04 in 10.0 mi East 3.5 mph - N/A   Overcast
9:54 PM 55.0 °F 45.0 °F 69% 30.03 in 10.0 mi ENE 3.5 mph - N/A   Overcast
10:54 PM 55.0 °F 43.0 °F 64% 30.06 in 10.0 mi WSW 4.6 mph - N/A   Overcast
11:54 PM 54.0 °F 46.0 °F 75% 30.05 in 10.0 mi Calm Calm - N/A   Overcast